Location: Newark
(34.4697°S, 57.8467°W)
Time: 08:48:09
(UTC+00:00)

N. Korean satellite - Pass Details

Date: 22 July 2019
Orbit: 457 x 507 km, 97.2° (Epoch: 21 August)

Event Time Altitude Azimuth Distance (km) Brightness Sun altitude
Rises 10:17:42 0° 325° (NW) 2,595 10.1 -7.4°
Reaches altitude 10° 10:21:44 10° 280° (W) 1,715 8.8 -6.7°
Maximum altitude 10:22:15 10° 272° (W) 1,701 8.7 -6.6°
Drops below altitude 10° 10:22:47 10° 264° (W) 1,716 8.7 -6.5°
Enters shadow 10:24:17 - 243° (WSW) 1,913 8.9 -6.2°
